AUA71 LOWW-HECA

Flight info

Callsign AUA71
Flight time 3h 0m
Altitude 35000
Route ARSIN DCT NALOX DCT OSDUK DCT SIVLA DCT AKIKA DCT MAVAR DCT BITLA DCT SIGFO DCT NEVRA DCT KUMBI L612 BLT A16 CVO
Aircraft A320/M-SDE3FGHIRWY/LB1

Departure

Time 2026-04-21 18:25
Airport Vienna International Airport (LOWW)

Arrival

Time 2026-04-21 21:26
Airport Cairo International Airport (HECA)
Time Latitude Longitude Altitude Speed Heading
2026-04-21 17:58 48.11879 16.56822 608 ft 0 kts 206°
2026-04-21 18:15 48.11901 16.56837 622 ft 4 kts 200°
2026-04-21 18:16 48.11927 16.56848 614 ft 4 kts 184°
2026-04-21 18:16 48.11950 16.56843 615 ft 4 kts 134°
2026-04-21 18:16 48.11955 16.56835 625 ft 0 kts 115°
2026-04-21 18:18 48.11952 16.56843 616 ft 1 kts 116°
2026-04-21 18:18 48.11945 16.56864 625 ft 4 kts 118°
2026-04-21 18:18 48.11939 16.56880 620 ft 0 kts 120°
2026-04-21 18:20 48.11939 16.56881 620 ft 1 kts 118°
2026-04-21 18:20 48.11926 16.56923 619 ft 7 kts 114°
2026-04-21 18:20 48.11899 16.56995 616 ft 9 kts 114°
2026-04-21 18:21 48.11865 16.57101 612 ft 11 kts 114°
2026-04-21 18:21 48.11851 16.57193 609 ft 7 kts 98°
2026-04-21 18:21 48.11836 16.57264 617 ft 7 kts 114°
2026-04-21 18:21 48.11810 16.57334 620 ft 11 kts 129°
2026-04-21 18:22 48.11740 16.57373 617 ft 8 kts 165°
2026-04-21 18:22 48.11683 16.57396 612 ft 11 kts 165°
2026-04-21 18:22 48.11614 16.57425 620 ft 13 kts 163°
2026-04-21 18:22 48.11518 16.57447 616 ft 12 kts 204°
2026-04-21 18:23 48.11455 16.57439 612 ft 8 kts 205°
2026-04-21 18:23 48.11392 16.57386 614 ft 10 kts 207°
2026-04-21 18:23 48.11309 16.57326 615 ft 13 kts 202°
2026-04-21 18:23 48.11238 16.57277 621 ft 9 kts 204°
2026-04-21 18:24 48.11168 16.57223 617 ft 16 kts 208°
2026-04-21 18:24 48.11075 16.57154 616 ft 13 kts 212°
2026-04-21 18:24 48.11084 16.57012 610 ft 31 kts 297°
2026-04-21 18:24 48.11292 16.56396 619 ft 98 kts 295°
2026-04-21 18:25 48.11672 16.55211 613 ft 152 kts 296°
2026-04-21 18:25 48.12109 16.53699 1082 ft 159 kts 286°
2026-04-21 18:25 48.11933 16.52046 1701 ft 172 kts 237°
2026-04-21 18:25 48.10983 16.50909 2158 ft 181 kts 213°
2026-04-21 18:26 48.09883 16.49787 2382 ft 202 kts 219°
2026-04-21 18:26 48.08702 16.48450 2573 ft 224 kts 219°
2026-04-21 18:26 48.07206 16.47443 2766 ft 251 kts 187°
2026-04-21 18:26 48.05394 16.47564 3099 ft 272 kts 172°
2026-04-21 18:27 48.03490 16.47914 3819 ft 278 kts 171°
2026-04-21 18:27 48.01562 16.48289 4642 ft 281 kts 171°
2026-04-21 18:27 47.99608 16.48672 5299 ft 283 kts 171°
2026-04-21 18:27 47.97641 16.48886 6169 ft 285 kts 183°
2026-04-21 18:28 47.95711 16.48205 6948 ft 288 kts 205°
2026-04-21 18:28 47.93925 16.46841 7719 ft 289 kts 209°
2026-04-21 18:28 47.92134 16.45435 8486 ft 292 kts 209°
2026-04-21 18:28 47.90325 16.44044 9270 ft 294 kts 205°
2026-04-21 18:29 47.88357 16.43143 10015 ft 299 kts 189°
2026-04-21 18:29 47.86245 16.43009 10435 ft 314 kts 174°
2026-04-21 18:29 47.84064 16.43699 10574 ft 337 kts 164°
2026-04-21 18:29 47.81757 16.44643 10981 ft 348 kts 165°
2026-04-21 18:30 47.79408 16.45596 11584 ft 353 kts 165°
2026-04-21 18:30 47.77026 16.46548 12266 ft 355 kts 166°
2026-04-21 18:30 47.74622 16.47499 12950 ft 358 kts 166°
2026-04-21 18:30 47.72209 16.48451 13679 ft 360 kts 166°
2026-04-21 18:31 47.69786 16.49401 14324 ft 362 kts 167°
2026-04-21 18:31 47.67387 16.50629 14813 ft 369 kts 155°
2026-04-21 18:31 47.65092 16.52366 15370 ft 372 kts 154°
2026-04-21 18:31 47.62783 16.54129 15975 ft 374 kts 154°
2026-04-21 18:32 47.60466 16.55903 16542 ft 376 kts 154°
2026-04-21 18:32 47.58130 16.57695 17082 ft 380 kts 154°
2026-04-21 18:32 47.55770 16.59504 17612 ft 383 kts 154°
2026-04-21 18:32 47.53391 16.61326 18141 ft 387 kts 154°
2026-04-21 18:33 47.50993 16.63164 18634 ft 390 kts 154°
2026-04-21 18:33 47.48572 16.65015 19108 ft 393 kts 154°
2026-04-21 18:33 47.46132 16.66871 19588 ft 396 kts 154°
2026-04-21 18:33 47.43675 16.68739 20071 ft 398 kts 154°
2026-04-21 18:34 47.41206 16.70618 20521 ft 401 kts 154°
2026-04-21 18:34 47.38712 16.72519 20983 ft 405 kts 154°
2026-04-21 18:34 47.36203 16.74427 21456 ft 407 kts 154°
2026-04-21 18:34 47.33672 16.76345 21928 ft 410 kts 154°
2026-04-21 18:35 47.31992 16.77616 22242 ft 412 kts 155°
2026-04-21 18:35 47.28565 16.80210 22854 ft 415 kts 154°
2026-04-21 18:35 47.25990 16.82157 23285 ft 418 kts 155°
2026-04-21 18:35 47.23394 16.84118 23707 ft 421 kts 155°
2026-04-21 18:36 47.20783 16.86092 24058 ft 423 kts 155°
2026-04-21 18:36 47.18159 16.88074 24396 ft 425 kts 155°
2026-04-21 18:36 47.15515 16.90064 24695 ft 429 kts 155°
2026-04-21 18:36 47.12850 16.92069 25018 ft 431 kts 155°
2026-04-21 18:37 47.10172 16.94078 25349 ft 434 kts 155°
2026-04-21 18:37 47.07475 16.96095 25657 ft 436 kts 155°
2026-04-21 18:37 47.04769 16.98119 25964 ft 438 kts 155°
2026-04-21 18:37 47.02046 17.00159 26258 ft 440 kts 155°
2026-04-21 18:38 46.99314 17.02210 26578 ft 442 kts 155°
2026-04-21 18:38 46.96567 17.04266 26883 ft 445 kts 155°
2026-04-21 18:38 46.93805 17.06329 27146 ft 447 kts 155°
2026-04-21 18:38 46.91027 17.08401 27413 ft 450 kts 155°
2026-04-21 18:39 46.88230 17.10485 27694 ft 452 kts 155°
2026-04-21 18:39 46.85421 17.12576 27984 ft 454 kts 155°
2026-04-21 18:39 46.82595 17.14676 28269 ft 457 kts 155°
2026-04-21 18:39 46.79757 17.16778 28524 ft 459 kts 155°
2026-04-21 18:40 46.76901 17.18889 28792 ft 461 kts 155°
2026-04-21 18:40 46.74035 17.21001 29048 ft 463 kts 155°
2026-04-21 18:40 46.72128 17.22406 29210 ft 464 kts 155°
2026-04-21 18:40 46.68264 17.25258 29515 ft 467 kts 156°
2026-04-21 18:41 46.65355 17.27404 29735 ft 469 kts 156°
2026-04-21 18:41 46.62437 17.29556 29975 ft 471 kts 156°
2026-04-21 18:41 46.59510 17.31712 30192 ft 473 kts 156°
2026-04-21 18:41 46.56565 17.33878 30372 ft 475 kts 156°
2026-04-21 18:42 46.53615 17.36044 30562 ft 476 kts 156°
2026-04-21 18:42 46.50661 17.38211 30809 ft 475 kts 156°
2026-04-21 18:42 46.47709 17.40371 31060 ft 475 kts 156°
2026-04-21 18:42 46.44758 17.42527 31264 ft 476 kts 157°
2026-04-21 18:43 46.41792 17.44688 31447 ft 477 kts 156°
2026-04-21 18:43 46.38829 17.46846 31673 ft 477 kts 157°
2026-04-21 18:43 46.35898 17.48978 31906 ft 477 kts 157°
2026-04-21 18:43 46.32894 17.51163 32150 ft 477 kts 157°
2026-04-21 18:44 46.29923 17.53324 32393 ft 477 kts 157°
2026-04-21 18:44 46.26955 17.55479 32633 ft 477 kts 157°
2026-04-21 18:44 46.23990 17.57629 32870 ft 477 kts 157°
2026-04-21 18:44 46.21022 17.59776 33062 ft 478 kts 158°
2026-04-21 18:45 46.18043 17.61927 33231 ft 479 kts 158°
2026-04-21 18:45 46.15097 17.64052 33440 ft 480 kts 158°
2026-04-21 18:45 46.12074 17.66229 33670 ft 480 kts 158°
2026-04-21 18:45 46.09124 17.68351 33898 ft 480 kts 158°
2026-04-21 18:46 46.06140 17.70497 34119 ft 480 kts 158°
2026-04-21 18:46 46.03157 17.72643 34327 ft 479 kts 158°
2026-04-21 18:46 46.00175 17.74784 34524 ft 479 kts 158°
2026-04-21 18:46 45.97191 17.76922 34670 ft 479 kts 158°
2026-04-21 18:47 45.94199 17.79062 34800 ft 480 kts 158°
2026-04-21 18:47 45.91208 17.81200 34961 ft 480 kts 158°
2026-04-21 18:47 45.88217 17.83338 35074 ft 480 kts 158°
2026-04-21 18:48 45.82257 17.87591 35100 ft 477 kts 158°
2026-04-21 18:48 45.76318 17.91824 35098 ft 477 kts 158°
2026-04-21 18:49 45.70368 17.96037 35101 ft 477 kts 158°
2026-04-21 18:49 45.65384 17.99559 35098 ft 477 kts 158°
2026-04-21 18:50 45.58464 18.04445 35092 ft 477 kts 158°
2026-04-21 18:50 45.52510 18.08644 35089 ft 477 kts 158°
2026-04-21 18:51 45.46554 18.12841 35066 ft 478 kts 159°
2026-04-21 18:51 45.40581 18.17018 35079 ft 478 kts 159°
2026-04-21 18:52 45.34609 18.21181 35081 ft 478 kts 159°
2026-04-21 18:52 45.28639 18.25346 35083 ft 478 kts 159°
2026-04-21 18:53 45.22666 18.29516 35104 ft 478 kts 159°
2026-04-21 18:53 45.16693 18.33676 35098 ft 478 kts 159°
2026-04-21 18:54 45.10715 18.37793 35096 ft 476 kts 162°
2026-04-21 18:54 45.04546 18.40976 35069 ft 472 kts 167°
2026-04-21 18:55 44.99391 18.43525 35074 ft 472 kts 167°
2026-04-21 18:55 44.92140 18.47126 35070 ft 473 kts 167°
2026-04-21 18:56 44.85933 18.50209 35076 ft 473 kts 167°
2026-04-21 18:56 44.79711 18.53273 35053 ft 474 kts 168°
2026-04-21 18:57 44.73480 18.56330 35063 ft 475 kts 168°
2026-04-21 18:57 44.67237 18.59403 35066 ft 475 kts 168°
2026-04-21 18:58 44.60994 18.62465 35057 ft 476 kts 169°
2026-04-21 18:58 44.54726 18.65527 35064 ft 478 kts 169°
2026-04-21 18:59 44.48441 18.68592 35072 ft 478 kts 169°
2026-04-21 18:59 44.42163 18.71648 35075 ft 478 kts 169°
2026-04-21 19:00 44.35882 18.74701 35057 ft 478 kts 169°
2026-04-21 19:00 44.29591 18.77744 35074 ft 478 kts 169°
2026-04-21 19:01 44.23305 18.80786 35077 ft 478 kts 169°
2026-04-21 19:01 44.18080 18.83310 35048 ft 478 kts 168°
2026-04-21 19:02 44.11787 18.86341 35060 ft 478 kts 169°
2026-04-21 19:02 44.05499 18.89361 35062 ft 478 kts 169°
2026-04-21 19:03 43.99210 18.92368 35067 ft 478 kts 169°
2026-04-21 19:03 43.92922 18.95371 35048 ft 477 kts 168°
2026-04-21 19:04 43.86643 18.98357 35061 ft 477 kts 169°
2026-04-21 19:04 43.80369 19.01344 35058 ft 477 kts 168°
2026-04-21 19:05 43.74094 19.04336 35041 ft 476 kts 168°
2026-04-21 19:05 43.67842 19.07302 35059 ft 475 kts 168°
2026-04-21 19:06 43.61592 19.10250 35064 ft 474 kts 168°
2026-04-21 19:06 43.55352 19.13192 35037 ft 474 kts 168°
2026-04-21 19:07 43.49125 19.16130 35057 ft 473 kts 168°
2026-04-21 19:07 43.42952 19.19031 35063 ft 472 kts 168°
2026-04-21 19:08 43.36741 19.21941 35060 ft 471 kts 168°
2026-04-21 19:08 43.30530 19.24836 35037 ft 471 kts 168°
2026-04-21 19:09 43.24329 19.27728 35044 ft 471 kts 168°
2026-04-21 19:09 43.18132 19.30608 35047 ft 470 kts 168°
2026-04-21 19:10 43.11931 19.33493 35051 ft 470 kts 168°
2026-04-21 19:10 43.05738 19.36361 35045 ft 470 kts 168°
2026-04-21 19:11 42.99539 19.39228 35038 ft 470 kts 168°
2026-04-21 19:11 42.93346 19.42094 35028 ft 470 kts 168°
2026-04-21 19:12 42.87155 19.44954 35032 ft 469 kts 168°
2026-04-21 19:12 42.80966 19.47804 35031 ft 469 kts 168°
2026-04-21 19:13 42.74776 19.50648 35027 ft 470 kts 168°
2026-04-21 19:13 42.68575 19.53483 35017 ft 470 kts 168°
2026-04-21 19:14 42.62378 19.56312 35027 ft 470 kts 168°
2026-04-21 19:14 42.56187 19.59158 35021 ft 472 kts 165°
2026-04-21 19:15 42.50432 19.63624 34997 ft 485 kts 146°
2026-04-21 19:15 42.45186 19.69361 35034 ft 484 kts 146°
2026-04-21 19:16 42.39936 19.75065 35031 ft 483 kts 146°
2026-04-21 19:16 42.34693 19.80737 35044 ft 483 kts 146°
2026-04-21 19:17 42.26820 19.89248 35023 ft 483 kts 146°
2026-04-21 19:17 42.21574 19.94901 35038 ft 483 kts 146°
2026-04-21 19:18 42.16332 20.00546 35040 ft 482 kts 146°
2026-04-21 19:18 42.11084 20.06174 35031 ft 482 kts 146°
2026-04-21 19:19 42.05834 20.11793 35040 ft 482 kts 146°
2026-04-21 19:19 42.00582 20.17406 35009 ft 482 kts 146°
2026-04-21 19:20 41.95332 20.23006 35014 ft 482 kts 146°
2026-04-21 19:20 41.90078 20.28596 35008 ft 482 kts 146°
2026-04-21 19:21 41.84854 20.34132 35009 ft 482 kts 146°
2026-04-21 19:21 41.79592 20.39709 35005 ft 482 kts 146°
2026-04-21 19:22 41.74333 20.45276 34997 ft 482 kts 146°
2026-04-21 19:22 41.69075 20.50824 34995 ft 481 kts 146°
2026-04-21 19:23 41.63808 20.56356 34994 ft 481 kts 146°
2026-04-21 19:23 41.58553 20.61907 34991 ft 481 kts 146°
2026-04-21 19:24 41.53300 20.67454 34992 ft 481 kts 146°
2026-04-21 19:24 41.48054 20.72997 34978 ft 481 kts 145°
2026-04-21 19:25 41.42812 20.78515 34984 ft 480 kts 146°
2026-04-21 19:25 41.37554 20.84005 34994 ft 480 kts 146°
2026-04-21 19:26 41.32295 20.89484 35001 ft 480 kts 146°
2026-04-21 19:26 41.27051 20.94965 34977 ft 479 kts 146°
2026-04-21 19:27 41.21809 21.00432 34981 ft 479 kts 146°
2026-04-21 19:27 41.16561 21.05883 34985 ft 479 kts 146°
2026-04-21 19:28 41.11306 21.11323 34982 ft 479 kts 146°
2026-04-21 19:28 41.06062 21.16752 34993 ft 478 kts 146°
2026-04-21 19:29 41.00815 21.22175 34965 ft 478 kts 146°
2026-04-21 19:29 40.95572 21.27574 34980 ft 477 kts 146°
2026-04-21 19:30 40.90330 21.32956 34982 ft 477 kts 146°
2026-04-21 19:30 40.85252 21.38635 34983 ft 480 kts 140°
2026-04-21 19:31 40.80384 21.44651 34984 ft 480 kts 140°
2026-04-21 19:31 40.75501 21.50670 34984 ft 480 kts 140°
2026-04-21 19:32 40.70613 21.56659 34980 ft 480 kts 140°
2026-04-21 19:32 40.65727 21.62640 34977 ft 480 kts 140°
2026-04-21 19:33 40.60867 21.68577 34980 ft 480 kts 140°
2026-04-21 19:33 40.55974 21.74547 34985 ft 480 kts 140°
2026-04-21 19:34 40.51081 21.80506 34994 ft 480 kts 140°
2026-04-21 19:34 40.46181 21.86464 34978 ft 480 kts 141°
2026-04-21 19:35 40.38827 21.95385 34993 ft 480 kts 141°
2026-04-21 19:36 40.33920 22.01321 34992 ft 480 kts 141°
2026-04-21 19:36 40.28999 22.07245 34992 ft 480 kts 141°
2026-04-21 19:37 40.24075 22.13157 34979 ft 480 kts 141°
2026-04-21 19:37 40.19157 22.19065 34964 ft 480 kts 141°
2026-04-21 19:38 40.14240 22.24968 34969 ft 480 kts 141°
2026-04-21 19:38 40.10147 22.29874 34971 ft 480 kts 141°
2026-04-21 19:39 40.04383 22.36755 34966 ft 480 kts 141°
2026-04-21 19:39 39.99447 22.42629 34964 ft 480 kts 141°
2026-04-21 19:40 39.94509 22.48497 34939 ft 480 kts 141°
2026-04-21 19:40 39.89573 22.54350 34952 ft 480 kts 141°
2026-04-21 19:41 39.84637 22.60194 34958 ft 480 kts 141°
2026-04-21 19:41 39.79701 22.66030 34960 ft 479 kts 141°
2026-04-21 19:42 39.74763 22.71859 34958 ft 479 kts 141°
2026-04-21 19:42 39.69824 22.77673 34956 ft 479 kts 141°
2026-04-21 19:43 39.64885 22.83473 34953 ft 479 kts 142°
2026-04-21 19:43 39.59945 22.89256 34957 ft 478 kts 142°
2026-04-21 19:44 39.55010 22.95024 34966 ft 478 kts 142°
2026-04-21 19:44 39.50080 23.00788 34959 ft 477 kts 142°
2026-04-21 19:45 39.45151 23.06535 34960 ft 477 kts 142°
2026-04-21 19:45 39.40221 23.12262 34931 ft 476 kts 142°
2026-04-21 19:46 39.35300 23.17967 34959 ft 474 kts 142°
2026-04-21 19:46 39.30395 23.23652 34962 ft 473 kts 142°
2026-04-21 19:47 39.26329 23.28365 34956 ft 472 kts 142°
2026-04-21 19:47 39.21440 23.34011 34954 ft 472 kts 142°
2026-04-21 19:48 39.16551 23.39647 34948 ft 471 kts 142°
2026-04-21 19:48 39.11651 23.45262 34926 ft 471 kts 142°
2026-04-21 19:49 39.06753 23.50868 34930 ft 471 kts 142°
2026-04-21 19:49 39.01862 23.56480 34932 ft 471 kts 142°
2026-04-21 19:50 38.96962 23.62078 34934 ft 471 kts 142°
2026-04-21 19:50 38.92065 23.67692 34936 ft 472 kts 141°
2026-04-21 19:51 38.87250 23.73420 34937 ft 472 kts 141°
2026-04-21 19:51 38.82455 23.79191 34920 ft 472 kts 140°
2026-04-21 19:52 38.77642 23.84927 34924 ft 473 kts 141°
2026-04-21 19:52 38.72809 23.90636 34925 ft 473 kts 141°
2026-04-21 19:53 38.67966 23.96333 34928 ft 473 kts 141°
2026-04-21 19:53 38.63124 24.02035 34941 ft 473 kts 141°
2026-04-21 19:54 38.58281 24.07724 34933 ft 473 kts 141°
2026-04-21 19:54 38.53432 24.13406 34915 ft 472 kts 141°
2026-04-21 19:55 38.48594 24.19078 34918 ft 472 kts 141°
2026-04-21 19:55 38.43760 24.24749 34932 ft 472 kts 141°
2026-04-21 19:56 38.38921 24.30404 34940 ft 472 kts 141°
2026-04-21 19:56 38.34073 24.36049 34940 ft 472 kts 141°
2026-04-21 19:57 38.29227 24.41677 34945 ft 472 kts 141°
2026-04-21 19:57 38.24374 24.47297 34926 ft 471 kts 141°
2026-04-21 19:58 38.19530 24.52909 34935 ft 471 kts 141°
2026-04-21 19:58 38.14634 24.58429 34939 ft 470 kts 144°
2026-04-21 19:59 38.09543 24.63604 34940 ft 468 kts 146°
2026-04-21 19:59 38.04417 24.68616 34947 ft 468 kts 146°
2026-04-21 20:00 37.99286 24.73705 34948 ft 468 kts 146°
2026-04-21 20:00 37.94185 24.78850 34955 ft 469 kts 145°
2026-04-21 20:01 37.89088 24.84002 34957 ft 469 kts 145°
2026-04-21 20:01 37.83981 24.89127 34957 ft 468 kts 146°
2026-04-21 20:02 37.78868 24.94242 34961 ft 468 kts 146°
2026-04-21 20:02 37.73757 24.99334 34965 ft 468 kts 146°
2026-04-21 20:03 37.68641 25.04432 34952 ft 468 kts 146°
2026-04-21 20:03 37.63532 25.09523 34959 ft 468 kts 146°
2026-04-21 20:04 37.58422 25.14605 34963 ft 468 kts 146°
2026-04-21 20:04 37.53308 25.19677 34969 ft 468 kts 146°
2026-04-21 20:05 37.48183 25.24738 34972 ft 468 kts 146°
2026-04-21 20:05 37.43062 25.29794 34955 ft 468 kts 146°
2026-04-21 20:06 37.37936 25.34850 34966 ft 468 kts 146°
2026-04-21 20:06 37.32817 25.39889 34973 ft 468 kts 146°
2026-04-21 20:07 37.27695 25.44926 34976 ft 467 kts 146°
2026-04-21 20:07 37.22568 25.49950 34982 ft 467 kts 146°
2026-04-21 20:08 37.17479 25.54936 34981 ft 467 kts 146°
2026-04-21 20:08 37.12356 25.59948 34968 ft 467 kts 146°
2026-04-21 20:09 37.07232 25.64942 34974 ft 467 kts 146°
2026-04-21 20:09 37.02104 25.69932 34981 ft 467 kts 146°
2026-04-21 20:10 36.96975 25.74909 34983 ft 466 kts 146°
2026-04-21 20:10 36.91856 25.79888 34992 ft 466 kts 146°
2026-04-21 20:11 36.86730 25.84858 34980 ft 466 kts 146°
2026-04-21 20:11 36.81603 25.89814 34988 ft 466 kts 146°
2026-04-21 20:12 36.76475 25.94760 34993 ft 466 kts 146°
2026-04-21 20:12 36.71346 25.99707 34990 ft 466 kts 146°
2026-04-21 20:13 36.66222 26.04646 34997 ft 466 kts 146°
2026-04-21 20:13 36.61084 26.09578 34999 ft 466 kts 146°
2026-04-21 20:14 36.55950 26.14502 34990 ft 466 kts 146°
2026-04-21 20:14 36.50813 26.19423 34994 ft 466 kts 146°
2026-04-21 20:15 36.45665 26.24334 34998 ft 466 kts 146°
2026-04-21 20:15 36.40518 26.29239 34995 ft 467 kts 146°
2026-04-21 20:16 36.35369 26.34146 35002 ft 467 kts 146°
2026-04-21 20:16 36.30217 26.39045 35008 ft 467 kts 146°
2026-04-21 20:17 36.25092 26.43900 34997 ft 467 kts 147°
2026-04-21 20:17 36.19928 26.48782 35002 ft 467 kts 147°
2026-04-21 20:18 36.15601 26.52876 35011 ft 467 kts 147°
2026-04-21 20:18 36.09601 26.58552 35012 ft 467 kts 146°
2026-04-21 20:19 36.04433 26.63434 35008 ft 468 kts 147°
2026-04-21 20:19 35.99260 26.68305 34993 ft 468 kts 147°
2026-04-21 20:20 35.94071 26.73163 35000 ft 468 kts 147°
2026-04-21 20:20 35.88888 26.78023 35012 ft 468 kts 147°
2026-04-21 20:21 35.83703 26.82884 35017 ft 468 kts 147°
2026-04-21 20:21 35.78515 26.87730 35021 ft 468 kts 147°
2026-04-21 20:22 35.73325 26.92574 35027 ft 468 kts 147°
2026-04-21 20:22 35.65537 26.99825 35012 ft 468 kts 147°
2026-04-21 20:23 35.60336 27.04658 35017 ft 468 kts 147°
2026-04-21 20:23 35.55136 27.09486 35021 ft 469 kts 147°
2026-04-21 20:24 35.49934 27.14312 35025 ft 469 kts 147°
2026-04-21 20:24 35.44727 27.19122 35016 ft 469 kts 147°
2026-04-21 20:25 35.39516 27.23927 35005 ft 469 kts 147°
2026-04-21 20:25 35.34306 27.28726 35012 ft 469 kts 147°
2026-04-21 20:26 35.29087 27.33529 35016 ft 469 kts 147°
2026-04-21 20:26 35.23875 27.38320 35018 ft 469 kts 147°
2026-04-21 20:27 35.18655 27.43107 35023 ft 469 kts 147°
2026-04-21 20:27 35.13437 27.47887 35028 ft 469 kts 147°
2026-04-21 20:28 35.08217 27.52666 35018 ft 469 kts 147°
2026-04-21 20:28 35.03022 27.57391 35033 ft 469 kts 147°
2026-04-21 20:29 34.97791 27.62139 35036 ft 469 kts 147°
2026-04-21 20:29 34.92565 27.66892 35039 ft 469 kts 147°
2026-04-21 20:30 34.87339 27.71650 35042 ft 469 kts 147°
2026-04-21 20:30 34.82110 27.76395 35019 ft 469 kts 147°
2026-04-21 20:31 34.76874 27.81125 35026 ft 469 kts 147°
2026-04-21 20:31 34.71636 27.85860 35037 ft 469 kts 147°
2026-04-21 20:32 34.66401 27.90594 35025 ft 469 kts 147°
2026-04-21 20:32 34.61156 27.95316 35038 ft 469 kts 147°
2026-04-21 20:33 34.55907 28.00023 35041 ft 469 kts 147°
2026-04-21 20:33 34.50661 28.04732 35026 ft 469 kts 147°
2026-04-21 20:34 34.46300 28.08649 35030 ft 469 kts 147°
2026-04-21 20:34 34.41046 28.13353 35036 ft 469 kts 148°
2026-04-21 20:35 34.35791 28.18045 35039 ft 470 kts 148°
2026-04-21 20:35 34.30528 28.22735 35041 ft 469 kts 148°
2026-04-21 20:36 34.25272 28.27420 35029 ft 469 kts 148°
2026-04-21 20:36 34.20009 28.32093 35035 ft 470 kts 148°
2026-04-21 20:37 34.14742 28.36767 35039 ft 470 kts 148°
2026-04-21 20:37 34.09480 28.41438 35043 ft 470 kts 148°
2026-04-21 20:38 34.04209 28.46097 35047 ft 470 kts 148°
2026-04-21 20:38 33.98940 28.50746 35053 ft 470 kts 148°
2026-04-21 20:39 33.93665 28.55406 35037 ft 470 kts 148°
2026-04-21 20:39 33.88389 28.60061 35048 ft 470 kts 148°
2026-04-21 20:40 33.83105 28.64713 35054 ft 470 kts 148°
2026-04-21 20:40 33.77823 28.69360 35059 ft 470 kts 148°
2026-04-21 20:41 33.72543 28.73999 35060 ft 470 kts 147°
2026-04-21 20:41 33.67612 28.79229 35059 ft 474 kts 141°
2026-04-21 20:42 33.62803 28.84632 35042 ft 474 kts 141°
2026-04-21 20:42 33.57993 28.90038 35044 ft 473 kts 141°
2026-04-21 20:43 33.53187 28.95430 35047 ft 473 kts 141°
2026-04-21 20:43 33.48367 29.00807 35057 ft 473 kts 141°
2026-04-21 20:44 33.43551 29.06181 35058 ft 473 kts 141°
2026-04-21 20:44 33.38732 29.11548 35061 ft 473 kts 141°
2026-04-21 20:45 33.33908 29.16903 35062 ft 473 kts 141°
2026-04-21 20:45 33.29086 29.22264 35051 ft 473 kts 141°
2026-04-21 20:46 33.24267 29.27619 35062 ft 473 kts 141°
2026-04-21 20:46 33.19443 29.32972 35068 ft 473 kts 141°
2026-04-21 20:47 33.14607 29.38307 35071 ft 473 kts 141°
2026-04-21 20:47 33.09775 29.43635 35070 ft 473 kts 141°
2026-04-21 20:48 33.04945 29.48969 35069 ft 473 kts 141°
2026-04-21 20:48 33.00109 29.54289 35046 ft 473 kts 141°
2026-04-21 20:49 32.95270 29.59595 35054 ft 473 kts 141°
2026-04-21 20:49 32.90424 29.64897 35053 ft 473 kts 141°
2026-04-21 20:50 32.85574 29.70202 35060 ft 473 kts 141°
2026-04-21 20:50 32.80734 29.75506 35061 ft 473 kts 141°
2026-04-21 20:51 32.75893 29.80813 35062 ft 473 kts 141°
2026-04-21 20:51 32.71047 29.86098 35062 ft 473 kts 142°
2026-04-21 20:52 32.66194 29.91375 35040 ft 473 kts 142°
2026-04-21 20:52 32.61371 29.96608 35050 ft 473 kts 142°
2026-04-21 20:53 32.56517 30.01871 35057 ft 473 kts 142°
2026-04-21 20:53 32.51659 30.07126 35068 ft 473 kts 142°
2026-04-21 20:54 32.46804 30.12373 35061 ft 473 kts 142°
2026-04-21 20:54 32.41949 30.17626 35068 ft 473 kts 142°
2026-04-21 20:55 32.37091 30.22868 35069 ft 472 kts 142°
2026-04-21 20:55 32.32223 30.28089 35050 ft 472 kts 142°
2026-04-21 20:56 32.27364 30.33306 35061 ft 472 kts 142°
2026-04-21 20:56 32.22499 30.38515 35063 ft 472 kts 142°
2026-04-21 20:57 32.17633 30.43717 35065 ft 472 kts 143°
2026-04-21 20:57 32.12762 30.48906 35070 ft 472 kts 143°
2026-04-21 20:58 32.07897 30.54102 35070 ft 472 kts 143°
2026-04-21 20:58 32.03034 30.59288 35071 ft 472 kts 143°
2026-04-21 20:59 31.98162 30.64465 35071 ft 472 kts 143°
2026-04-21 20:59 31.93295 30.69638 35069 ft 471 kts 143°
2026-04-21 21:00 31.88421 30.74809 35069 ft 471 kts 143°
2026-04-21 21:00 31.83548 30.79974 35070 ft 471 kts 143°
2026-04-21 21:01 31.78674 30.85126 35071 ft 471 kts 143°
2026-04-21 21:01 31.73789 30.90273 35071 ft 471 kts 143°
2026-04-21 21:02 31.68908 30.95412 35057 ft 471 kts 143°
2026-04-21 21:02 31.66468 30.97979 34882 ft 470 kts 143°
2026-04-21 21:02 31.64051 31.00526 34642 ft 465 kts 143°
2026-04-21 21:03 31.61654 31.03054 34158 ft 462 kts 143°
2026-04-21 21:03 31.59261 31.05572 33549 ft 461 kts 143°
2026-04-21 21:03 31.56882 31.08068 33009 ft 457 kts 144°
2026-04-21 21:03 31.54356 31.10273 32467 ft 448 kts 154°
2026-04-21 21:04 31.51619 31.11910 31985 ft 436 kts 164°
2026-04-21 21:04 31.48768 31.12974 31508 ft 425 kts 174°
2026-04-21 21:04 31.45881 31.13565 31054 ft 419 kts 177°
2026-04-21 21:04 31.43014 31.14098 30586 ft 416 kts 177°
2026-04-21 21:05 31.40172 31.14633 30132 ft 412 kts 177°
2026-04-21 21:05 31.37352 31.15167 29664 ft 408 kts 176°
2026-04-21 21:05 31.34566 31.15699 29241 ft 403 kts 176°
2026-04-21 21:05 31.31811 31.16223 28822 ft 399 kts 176°
2026-04-21 21:06 31.29086 31.16734 28401 ft 395 kts 176°
2026-04-21 21:06 31.26387 31.17238 27955 ft 391 kts 176°
2026-04-21 21:06 31.23709 31.17737 27525 ft 388 kts 176°
2026-04-21 21:06 31.21057 31.18229 27104 ft 385 kts 176°
2026-04-21 21:07 31.18417 31.18718 26680 ft 382 kts 175°
2026-04-21 21:07 31.15801 31.19205 26246 ft 380 kts 175°
2026-04-21 21:07 31.13202 31.19690 25805 ft 377 kts 175°
2026-04-21 21:07 31.10620 31.20171 25368 ft 375 kts 175°
2026-04-21 21:08 31.08047 31.20646 24916 ft 374 kts 175°
2026-04-21 21:08 31.05487 31.21120 24467 ft 372 kts 174°
2026-04-21 21:08 31.02930 31.21594 24007 ft 371 kts 174°
2026-04-21 21:08 31.00383 31.22067 23523 ft 371 kts 174°
2026-04-21 21:09 30.97840 31.22540 23033 ft 369 kts 174°
2026-04-21 21:09 30.95314 31.23011 22579 ft 366 kts 174°
2026-04-21 21:09 30.92839 31.23472 22139 ft 364 kts 174°
2026-04-21 21:09 30.90344 31.23934 21691 ft 362 kts 174°
2026-04-21 21:10 30.87866 31.24390 21251 ft 360 kts 174°
2026-04-21 21:10 30.85399 31.24844 20826 ft 358 kts 174°
2026-04-21 21:10 30.82942 31.25297 20396 ft 357 kts 174°
2026-04-21 21:10 30.80492 31.25750 19966 ft 356 kts 174°
2026-04-21 21:11 30.78050 31.26202 19540 ft 355 kts 174°
2026-04-21 21:11 30.75611 31.26655 19112 ft 354 kts 174°
2026-04-21 21:11 30.73178 31.27108 18688 ft 354 kts 174°
2026-04-21 21:11 30.70747 31.27559 18250 ft 354 kts 174°
2026-04-21 21:12 30.68320 31.28005 17802 ft 352 kts 174°
2026-04-21 21:12 30.65904 31.28450 17382 ft 350 kts 174°
2026-04-21 21:12 30.63502 31.28890 16978 ft 348 kts 174°
2026-04-21 21:12 30.61117 31.29328 16576 ft 347 kts 174°
2026-04-21 21:13 30.58738 31.29767 16178 ft 345 kts 174°
2026-04-21 21:13 30.56373 31.30203 15771 ft 344 kts 174°
2026-04-21 21:13 30.54015 31.30637 15387 ft 342 kts 174°
2026-04-21 21:13 30.51666 31.31068 14993 ft 341 kts 174°
2026-04-21 21:14 30.49323 31.31499 14612 ft 340 kts 174°
2026-04-21 21:14 30.46987 31.31930 14221 ft 340 kts 174°
2026-04-21 21:14 30.44655 31.32360 13826 ft 339 kts 173°
2026-04-21 21:14 30.42331 31.32789 13409 ft 337 kts 173°
2026-04-21 21:15 30.40021 31.33214 13011 ft 335 kts 173°
2026-04-21 21:15 30.37728 31.33633 12621 ft 332 kts 173°
2026-04-21 21:15 30.35450 31.34048 12230 ft 330 kts 173°
2026-04-21 21:15 30.33186 31.34460 11838 ft 329 kts 173°
2026-04-21 21:16 30.30936 31.34685 11559 ft 317 kts 186°
2026-04-21 21:16 30.28824 31.34226 11046 ft 305 kts 197°
2026-04-21 21:16 30.26784 31.33581 10424 ft 302 kts 198°
2026-04-21 21:16 30.24768 31.32924 9789 ft 300 kts 198°
2026-04-21 21:17 30.22766 31.32266 9114 ft 298 kts 198°
2026-04-21 21:17 30.20785 31.31614 8432 ft 295 kts 197°
2026-04-21 21:17 30.19454 31.31177 7986 ft 294 kts 197°
2026-04-21 21:17 30.17519 31.30543 7328 ft 292 kts 197°
2026-04-21 21:18 30.15575 31.29911 6670 ft 290 kts 197°
2026-04-21 21:18 30.13631 31.29281 5939 ft 290 kts 197°
2026-04-21 21:18 30.11700 31.28655 5235 ft 288 kts 197°
2026-04-21 21:18 30.09773 31.28030 4526 ft 286 kts 197°
2026-04-21 21:19 30.07874 31.27402 3868 ft 282 kts 197°
2026-04-21 21:19 30.06093 31.26769 3911 ft 249 kts 206°
2026-04-21 21:19 30.04789 31.25574 3896 ft 238 kts 237°
2026-04-21 21:19 30.04228 31.23854 3627 ft 227 kts 272°
2026-04-21 21:20 30.04534 31.22146 3392 ft 216 kts 297°
2026-04-21 21:20 30.05260 31.20637 3133 ft 213 kts 315°
2026-04-21 21:20 30.06479 31.19782 2961 ft 202 kts 351°
2026-04-21 21:20 30.07774 31.19965 2938 ft 185 kts 30°
2026-04-21 21:21 30.08617 31.21038 2946 ft 184 kts 68°
2026-04-21 21:21 30.08710 31.22518 3015 ft 190 kts 94°
2026-04-21 21:21 30.08275 31.23960 2949 ft 195 kts 126°
2026-04-21 21:21 30.07282 31.25035 2956 ft 197 kts 139°
2026-04-21 21:22 30.06184 31.25983 2947 ft 197 kts 140°
2026-04-21 21:22 30.05101 31.26948 2855 ft 195 kts 133°
2026-04-21 21:22 30.04307 31.28197 2541 ft 190 kts 111°
2026-04-21 21:22 30.03949 31.29603 2393 ft 175 kts 92°
2026-04-21 21:23 30.03978 31.30911 2250 ft 153 kts 75°
2026-04-21 21:23 30.04279 31.32011 2122 ft 139 kts 61°
2026-04-21 21:23 30.04782 31.32926 1967 ft 134 kts 48°
2026-04-21 21:23 30.05391 31.33736 1801 ft 134 kts 47°
2026-04-21 21:24 30.06002 31.34548 1626 ft 135 kts 47°
2026-04-21 21:24 30.06614 31.35362 1439 ft 134 kts 47°
2026-04-21 21:24 30.07222 31.36175 1283 ft 134 kts 48°
2026-04-21 21:24 30.07830 31.36983 1079 ft 133 kts 47°
2026-04-21 21:25 30.08437 31.37784 884 ft 133 kts 48°
2026-04-21 21:25 30.09042 31.38588 693 ft 133 kts 48°
2026-04-21 21:25 30.09654 31.39391 521 ft 132 kts 49°
2026-04-21 21:25 30.10243 31.40189 392 ft 128 kts 49°
2026-04-21 21:26 30.10756 31.40874 371 ft 94 kts 50°
2026-04-21 21:26 30.11071 31.41295 375 ft 46 kts 48°
2026-04-21 21:26 30.11277 31.41531 374 ft 36 kts 34°
2026-04-21 21:26 30.11467 31.41619 375 ft 22 kts 19°
2026-04-21 21:27 30.11530 31.41624 374 ft 5 kts 350°
2026-04-21 21:27 30.11545 31.41610 374 ft 2 kts 315°
2026-04-21 21:27 30.11557 31.41592 374 ft 5 kts 303°
2026-04-21 21:27 30.11537 31.41514 375 ft 12 kts 231°
2026-04-21 21:28 30.11486 31.41444 375 ft 11 kts 230°
2026-04-21 21:28 30.11432 31.41371 375 ft 12 kts 229°
2026-04-21 21:28 30.11318 31.41222 375 ft 12 kts 229°
2026-04-21 21:29 30.11268 31.41155 375 ft 10 kts 229°
2026-04-21 21:29 30.11224 31.41095 375 ft 11 kts 229°
2026-04-21 21:29 30.11162 31.41014 375 ft 13 kts 227°
2026-04-21 21:29 30.11095 31.40927 375 ft 19 kts 230°
2026-04-21 21:30 30.11080 31.40803 374 ft 16 kts 286°
2026-04-21 21:30 30.11030 31.40677 374 ft 19 kts 231°
2026-04-21 21:30 30.10952 31.40575 374 ft 16 kts 227°
2026-04-21 21:30 30.10924 31.40469 374 ft 13 kts 279°
2026-04-21 21:31 30.10950 31.40372 374 ft 12 kts 288°
2026-04-21 21:31 30.10955 31.40276 374 ft 12 kts 246°
2026-04-21 21:31 30.10901 31.40186 374 ft 15 kts 231°
2026-04-21 21:31 30.10880 31.40122 374 ft 8 kts 289°
2026-04-21 21:32 30.10895 31.40041 374 ft 10 kts 264°
2026-04-21 21:32 30.10888 31.40008 374 ft 0 kts 256°
2026-04-21 21:32 30.10887 31.40005 374 ft 0 kts 255°